This is the latest recevied weather packets stored in our database for station/object OE5RBO. If no packets are shown the sender has not sent any weather packets the latest 10 day(s).
| Time | Temp. | Humidity | Pressure | Rain* | Wind** | Luminosity | Snow |
|---|---|---|---|---|---|---|---|
| 1777895272 | 26.11° C | 46% | 1011.9 hPa | 0 mm | - | - | - |
| 1777894672 | 26.11° C | 46% | 1012.2 hPa | 0 mm | - | - | - |
| 1777894071 | 26.11° C | 49% | 1012.4 hPa | 0 mm | - | - | - |
| 1777893471 | 26.67° C | 45% | 1012.6 hPa | 0 mm | - | - | - |
| 1777892871 | 26.11° C | 46% | 1012.8 hPa | 0 mm | - | - | - |
| 1777892270 | 25° C | 49% | 1012.9 hPa | 0 mm | - | - | - |
| 1777891670 | 23.89° C | 51% | 1013 hPa | 0 mm | - | - | - |
| 1777891069 | 23.89° C | 50% | 1013.3 hPa | 0 mm | - | - | - |
| 1777890469 | 23.33° C | 53% | 1013.4 hPa | 0 mm | - | - | - |
| 1777889869 | 23.33° C | 52% | 1013.5 hPa | 0 mm | - | - | - |
| 1777889268 | 23.33° C | 51% | 1013.6 hPa | 0 mm | - | - | - |
| 1777888668 | 25° C | 49% | 1013.7 hPa | 0 mm | - | - | - |
| 1777887467 | 23.33° C | 51% | 1013.9 hPa | 0 mm | - | - | - |
| 1777886867 | 22.22° C | 55% | 1014.2 hPa | 0 mm | - | - | - |
| 1777886266 | 23.89° C | 50% | 1014.2 hPa | 0 mm | - | - | - |
| 1777885666 | 23.89° C | 52% | 1014.4 hPa | 0 mm | - | - | - |
| 1777885066 | 22.22° C | 52% | 1014.5 hPa | 0 mm | - | - | - |
| 1777883865 | 21.67° C | 54% | 1014.7 hPa | 0 mm | - | - | - |
| 1777883265 | 21.11° C | 56% | 1014.7 hPa | 0 mm | - | - | - |
| 1777882664 | 21.67° C | 57% | 1014.7 hPa | 0 mm | - | - | - |
| 1777882064 | 20.56° C | 58% | 1014.8 hPa | 0 mm | - | - | - |
| 1777881464 | 22.22° C | 53% | 1014.8 hPa | 0 mm | - | - | - |
| 1777880863 | 22.78° C | 55% | 1014.7 hPa | 0 mm | - | - | - |
| 1777880263 | 22.22° C | 54% | 1014.8 hPa | 0 mm | - | - | - |
| 1777879062 | 20° C | 59% | 1014.7 hPa | 0 mm | - | - | - |
* Rain since midnight (hover to see other rain measurements)
** Current wind speed in m/s (hover to see current wind gust speed)